Vertical_Velocity
0 0 1 -0 1 -1 1 -1 1 -0 -1 -1 -0 1 -0 -0 -0 1 1 2 1 0 -1 -1 -1 -0 -1 -1 -0 -0 -1 -1 1
1 1 2 0 1 1 -0 0 -0 -0 -0 -1 -0 0 0 1 1 0 -0 -0 -2 -2 -2 -1 -2 -1 -1 -1 -1 -2 -2 -2 -1
1 1 1 -1 1 0 1 1 1 0 -1 -1 -2 -2 -2 -1 -1 -0 -2 -1 -1 -0 -0 -1 -1 -1 -1 -1 0 -0 -1 -2 -3
1 1 1 1 1 0 -1 1 -0 0 0 -1 -2 -2 -2 -2 -2 -0 -1 -1 -1 -2 -2 -1 -2 -1 -1 -1 -2 -3 -2 -2 -1
0 1 2 -0 0 0 1 0 0 -1 -2 -1 -2 -3 -1 -1 -2 -1 -1 -2 -2 -1 -2 -1 0 -1 -3 -3 -3 -3 -4 -4 -2
-1 0 -0 -2 -1 1 1 -1 -1 -0 -1 -1 -0 -0 -1 -1 -2 -2 -1 -1 -1 -2 -3 -5 -4 -2 -1 -1 -1 -2 -3 -4 -2
1 0 1 -1 -0 -0 -1 -0 -0 -1 -0 0 -1 -1 -1 -1 -1 -2 -1 -2 -1 -1 -1 0 -0 0 -1 -2 -2 -1 -1 -1 -3
-0 0 -0 -1 -2 -0 -0 -2 -2 -2 0 -1 -2 -2 0 1 1 -0 -1 -1 -0 -2 -3 -2 -1 -1 -1 -1 -1 -3 0 1 -1
-2 -2 -2 -2 -1 -1 -1 -0 1 1 2 2 2 0 -1 1 0 -0 1 -1 -3 -2 -1 -1 -1 -2 -1 -0 -1 -3 -1 -1 -1
-2 0 1 1 4 4 1 -2 -1 -1 -1 -1 -0 -0 -0 -0 2 0 -1 0 0 -2 0 0 -1 -2 -1 -1 -0 -1 -1 -2 -1
0 -2 -1 -1 -1 -2 -0 0 0 -0 0 1 -0 -2 -1 1 1 3 3 3 0 -0 -2 -3 -2 -0 -1 -2 -0 -1 -0 0 -2
2 1 1 -0 0 2 2 1 2 3 -1 3 1 1 -0 3 3 2 4 2 -0 1 1 -2 -1 2 -0 -1 -0 -1 -1 -2 -2
1 3 1 0 1 1 1 -1 -0 1 1 0 -1 -1 1 2 2 2 2 2 -1 0 2 -1 -0 -0 1 -1 -0 1 2 0 0
2 1 0 -1 1 1 2 3 -2 0 -1 -0 0 2 2 1 -1 5 4 1 3 4 2 -0 1 0 -1 0 -3 -2 -0 0 -0
0 2 1 -0 1 -1 -1 -1 -0 0 -2 1 4 -1 2 4 3 5 1 -0 -1 0 1 -1 0 -1 1 0 -2 1 -1 -4 1
-0 1 2 -0 -0 -0 -2 -2 -4 4 -0 -5 3 6 5 5 2 -3 2 4 -1 3 -2 -4 -1 2 -2 -1 1 1 -0 -0 -2
-1 -1 -0 -1 3 1 -0 -1 2 3 -4 -5 -9 3 17 13 4 -2 -0 4 -2 4 -0 1 -2 -2 2 3 -3 1 0 -1 0
2 1 2 1 -0 3 -1 -1 1 -3 9 -1 -9 -11 -4 -2 29 11 3 1 -1 -0 1 1 2 -1 -0 3 2 -1 -5 -3 -2
1 1 0 0 -1 0 -0 -3 -2 -5 3 -3 -1 -0 -11 -12 -13 9 21 0 3 3 4 -1 -0 1 -1 0 1 7 2 -4 -6
-1 -1 -1 -1 -1 -0 1 4 -3 -2 -2 -2 1 -3 1 2 -18 -13 6 11 10 -2 -1 -2 1 2 2 2 2 3 4 0 0
Height
5850 5850 5849 5848 5846 5845 5844 5841 5839 5836 5832 5829 5826 5824 5821 5819 5818 5816 5814 5812 5810 5808 5805 5804 5802 5800 5798 5795 5793 5790 5787 5785 5782
5848 5847 5846 5845 5844 5843 5841 5838 5836 5833 5829 5826 5824 5821 5819 5817 5815 5814 5812 5809 5806 5804 5803 5801 5799 5797 5794 5792 5789 5786 5783 5780 5778
5845 5844 5843 5842 5841 5839 5837 5835 5833 5830 5827 5824 5822 5819 5817 5815 5813 5811 5808 5806 5804 5802 5800 5798 5796 5793 5791 5788 5786 5783 5780 5777 5775
5842 5841 5840 5839 5837 5835 5834 5831 5829 5827 5824 5822 5820 5818 5815 5813 5811 5808 5805 5803 5800 5798 5795 5793 5791 5788 5786 5783 5781 5778 5776 5773 5771
5838 5837 5835 5834 5833 5831 5830 5827 5825 5823 5820 5819 5817 5815 5812 5809 5806 5804 5801 5798 5796 5793 5791 5789 5785 5783 5780 5777 5774 5771 5769 5767 5765
5833 5832 5831 5830 5828 5827 5825 5823 5821 5818 5816 5814 5812 5809 5807 5805 5802 5799 5796 5793 5790 5788 5785 5782 5779 5776 5773 5771 5768 5766 5762 5761 5758
5829 5828 5826 5825 5823 5821 5820 5818 5815 5813 5810 5808 5806 5804 5801 5799 5796 5793 5790 5788 5785 5782 5779 5776 5773 5769 5766 5763 5760 5757 5755 5752 5750
5824 5822 5821 5819 5817 5816 5813 5811 5809 5806 5803 5801 5799 5797 5795 5792 5790 5787 5784 5780 5778 5775 5772 5768 5765 5762 5758 5755 5752 5749 5746 5744 5741
5818 5816 5814 5812 5811 5809 5806 5804 5801 5798 5796 5793 5791 5789 5787 5785 5782 5779 5777 5773 5770 5767 5763 5760 5756 5753 5750 5747 5744 5741 5738 5735 5732
5812 5810 5808 5806 5804 5801 5798 5796 5792 5790 5788 5785 5782 5780 5779 5776 5774 5771 5768 5764 5760 5757 5753 5750 5747 5743 5740 5737 5734 5731 5728 5725 5722
5804 5802 5800 5798 5795 5792 5790 5787 5784 5782 5779 5776 5773 5771 5768 5766 5763 5760 5757 5753 5750 5747 5743 5740 5736 5733 5730 5726 5723 5720 5717 5715 5712
5797 5795 5793 5790 5787 5785 5782 5779 5776 5774 5771 5768 5765 5762 5758 5756 5753 5750 5747 5742 5739 5736 5732 5729 5726 5723 5720 5717 5713 5710 5706 5704 5702
5790 5788 5785 5783 5780 5778 5775 5771 5768 5766 5762 5758 5755 5752 5748 5745 5742 5739 5735 5731 5727 5724 5720 5718 5715 5712 5709 5705 5702 5699 5697 5693 5691
5783 5781 5778 5775 5773 5770 5767 5764 5759 5756 5753 5748 5744 5740 5736 5733 5730 5727 5722 5718 5715 5712 5708 5706 5703 5700 5696 5692 5689 5686 5683 5681 5677
5778 5776 5773 5769 5765 5761 5758 5754 5750 5745 5741 5737 5734 5729 5726 5722 5718 5714 5709 5706 5703 5699 5696 5693 5690 5685 5682 5679 5676 5673 5671 5667 5664
5770 5767 5764 5760 5756 5751 5747 5742 5737 5734 5729 5724 5722 5718 5716 5711 5707 5700 5697 5693 5690 5686 5684 5679 5676 5673 5668 5664 5661 5658 5655 5653 5650
5761 5757 5753 5749 5744 5740 5735 5730 5726 5722 5716 5711 5705 5703 5703 5700 5693 5688 5683 5679 5674 5671 5667 5663 5660 5657 5653 5651 5647 5644 5641 5638 5635
5750 5746 5742 5738 5733 5729 5723 5718 5713 5707 5703 5697 5690 5684 5681 5678 5680 5676 5671 5666 5660 5656 5652 5649 5646 5642 5639 5637 5635 5632 5627 5622 5620
5738 5734 5730 5725 5720 5716 5711 5705 5700 5694 5689 5681 5676 5670 5665 5658 5656 5656 5653 5649 5644 5641 5637 5633 5630 5628 5625 5621 5620 5617 5612 5609 5606
5729 5724 5719 5714 5709 5704 5698 5693 5686 5679 5674 5667 5661 5654 5649 5644 5636 5634 5634 5631 5629 5625 5620 5617 5614 5611 5608 5607 5605 5602 5597 5595 5593